GW0263 Weather Reports


time (UTC)temp
C
wind
direction
speed
KPH
gust
KPH
rain 1hr
cm
rain 24hr
cm
rain mn
cm
humidity
%
barometer
mb
20260505153045 22 0 0.0 0.0 0.00 0.00 0.00 54 1019.0
20260505151534 21 0 0.0 0.0 0.00 0.00 0.00 53 1018.9
20260505124531 8 0 0.0 0.0 0.00 0.00 0.00 91 1018.5
20260505123051 7 0 0.0 0.0 0.00 0.00 0.00 91 1018.4
20260505121530 7 0 0.0 0.0 0.00 0.00 0.00 91 1018.4
20260505120032 6 0 0.0 0.0 0.00 0.00 0.00 91 1018.2
20260505114533 6 0 0.0 0.0 0.00 0.00 0.00 91 1018.3
20260505113037 6 0 0.0 0.0 0.00 0.00 0.00 90 1018.3
20260505111550 6 0 0.0 0.0 0.00 0.00 0.00 90 1018.0
20260505101535 6 0 0.0 0.0 0.00 0.00 0.00 88 1017.8
20260505100035 7 0 0.0 0.0 0.00 0.00 0.00 88 1017.7
20260505094531 7 0 0.0 0.0 0.00 0.00 0.00 88 1017.7
20260505093031 7 0 0.0 0.0 0.00 0.00 0.00 88 1017.6
20260505091535 7 0 0.0 0.0 0.00 0.00 0.00 89 1017.6
20260505090038 7 0 0.0 0.0 0.00 0.00 0.00 90 1017.6
20260505084532 7 0 0.0 0.0 0.00 0.00 0.00 90 1017.6
20260505083040 7 0 0.0 0.0 0.00 0.00 0.00 90 1017.6
20260505081540 7 0 0.0 0.0 0.00 0.00 0.00 90 1017.7
20260505080038 7 0 0.0 0.0 0.00 0.00 0.00 89 1017.7
20260505074530 7 0 0.0 0.0 0.00 0.00 0.00 89 1017.6
20260505073032 7 0 0.0 0.0 0.00 0.00 0.00 89 1017.7
20260505071537 8 0 0.0 0.0 0.00 0.00 0.00 89 1017.7
20260505070039 8 0 0.0 0.0 0.00 0.00 0.00 88 1017.6
20260505064550 8 0 0.0 0.0 0.00 0.00 0.00 88 1017.7
20260505063032 8 0 0.0 0.0 0.00 0.00 0.00 88 1017.8
20260505061539 8 0 0.0 0.0 0.00 0.00 0.00 87 1018.0
20260505060032 8 0 0.0 0.0 0.00 0.00 0.00 87 1018.1
20260505054535 9 0 0.0 0.0 0.00 0.00 0.00 87 1018.0
20260505053032 9 0 0.0 0.0 0.00 0.00 0.00 86 1018.0
20260505051532 9 0 0.0 0.0 0.00 0.00 0.00 85 1018.1
20260505041535 11 0 0.0 0.0 0.00 0.00 0.00 83 1018.2
20260505040033 11 0 0.0 0.0 0.00 0.00 0.00 82 1018.3
20260505034534 11 0 0.0 0.0 0.00 0.00 0.00 81 1018.4
20260505033036 11 0 0.0 0.0 0.00 0.00 0.00 80 1018.5
20260505031534 12 0 0.0 0.0 0.00 0.00 0.00 78 1018.4
20260505030034 12 0 0.0 0.0 0.00 0.00 0.00 77 1018.4
20260505024540 12 0 0.0 0.0 0.00 0.00 0.00 76 1018.4
20260505023030 13 0 0.0 0.0 0.00 0.00 0.00 75 1018.4
20260505021538 13 0 0.0 0.0 0.00 0.00 0.00 72 1018.3
20260505020031 14 0 0.0 0.0 0.00 0.00 0.00 70 1018.0
20260505014541 15 0 0.0 0.0 0.00 0.00 0.00 67 1017.8
20260505013032 15 0 0.0 0.0 0.00 0.00 0.00 64 1017.7
20260505011534 16 0 0.0 0.0 0.00 0.00 0.00 61 1017.6
20260505010036 17 0 0.0 0.0 0.00 0.00 0.00 59 1017.6
20260505004535 17 0 0.0 0.0 0.00 0.00 0.00 56 1017.4
20260505003034 18 0 0.0 0.0 0.00 0.00 0.00 54 1017.3
20260505001546 19 0 0.0 0.0 0.00 0.00 0.00 51 1017.2
20260505000040 20 0 0.0 0.0 0.00 0.00 0.00 47 1017.1
20260504234532 20 0 0.0 0.0 0.00 0.00 0.00 45 1017.2
20260504233031 20 0 0.0 0.0 0.00 0.00 0.00 43 1017.0
20260504231540 21 0 0.0 0.0 0.00 0.00 0.00 40 1017.0
20260504230030 21 0 0.0 0.0 0.00 0.00 0.00 47 1016.8
20260504224536 21 0 0.0 0.0 0.00 0.00 0.00 43 1016.7
20260504223031 21 0 0.0 0.0 0.00 0.00 0.00 45 1016.7
20260504221532 21 0 0.0 0.0 0.00 0.00 0.00 49 1016.8
20260504220034 22 0 0.0 0.0 0.00 0.00 0.00 47 1016.8
20260504214534 22 0 0.0 0.0 0.00 0.00 0.00 47 1016.8
20260504213033 22 0 0.0 0.0 0.00 0.00 0.00 44 1016.8
20260504211532 22 0 0.0 0.0 0.00 0.00 0.00 47 1016.7
20260504210051 23 0 0.0 0.0 0.00 0.00 0.00 43 1016.7
20260504204534 23 0 0.0 0.0 0.00 0.00 0.00 45 1016.7
20260504203034 24 0 0.0 0.0 0.00 0.00 0.00 42 1016.7
20260504201535 25 0 0.0 0.0 0.00 0.00 0.00 38 1016.6
20260504200032 25 0 0.0 0.0 0.00 0.00 0.00 39 1016.7
20260504194555 26 0 0.0 0.0 0.00 0.00 0.00 38 1016.8
20260504193034 26 0 0.0 0.0 0.00 0.00 0.00 34 1016.9
20260504191542 26 0 0.0 0.0 0.00 0.00 0.00 37 1017.0
20260504190033 26 0 0.0 0.0 0.00 0.00 0.00 36 1017.2
20260504184537 26 0 0.0 0.0 0.00 0.00 0.00 30 1017.5
20260504183033 27 0 0.0 0.0 0.00 0.00 0.00 31 1017.6
20260504181543 26 0 0.0 0.0 0.00 0.00 0.00 32 1017.9
20260504180050 26 0 0.0 0.0 0.00 0.00 0.00 29 1017.9
20260504174532 26 0 0.0 0.0 0.00 0.00 0.00 29 1018.1
20260504173035 26 0 0.0 0.0 0.00 0.00 0.00 29 1018.1
20260504171530 26 0 0.0 0.0 0.00 0.00 0.00 33 1018.1